Location: Namasale
(1.5000°N, 32.6167°E)
Time: 09:20:14
(UTC+00:00)

A-11 Canister half - Visible Passes

Search period start: 19 April 2021 00:00
Search period end: 29 April 2021 00:00
Orbit: 1525 x 1683 km, 47.3° (Epoch: 18 April)

Date Brightness Start Highest point End Pass type
(mag) Time Alt. Az. Time Alt. Az. Time Alt. Az.
21 Apr 11.2 19:30:27 10° N 19:30:45 11° N 19:30:45 11° N visible
22 Apr 11.0 19:09:05 10° N 19:10:16 13° N 19:10:16 13° N visible
23 Apr 10.9 18:47:45 10° N 18:49:48 14° NNE 18:49:48 14° NNE visible
24 Apr 10.8 18:26:27 10° N 18:29:24 15° NNE 18:29:24 15° NNE visible
24 Apr 11.3 20:27:39 10° NW 20:27:42 10° NW 20:27:42 10° NW visible
25 Apr 10.7 18:05:14 10° NNE 18:09:01 15° NE 18:09:01 15° NE visible
25 Apr 11.1 20:05:59 10° NW 20:07:19 15° NW 20:07:19 15° NW visible
26 Apr 10.7 17:44:05 10° NNE 17:48:38 14° NE 17:48:41 14° NE visible
26 Apr 10.8 19:44:19 10° NNW 19:47:00 21° NNW 19:47:00 21° NNW visible
27 Apr 10.7 17:23:05 10° NNE 17:26:51 12° NE 17:28:24 12° NE visible
27 Apr 10.4 19:22:40 10° NNW 19:26:43 28° NNW 19:26:43 28° NNW visible
28 Apr 10.7 17:02:17 10° NNE 17:05:05 11° NE 17:07:50 10° ENE visible
28 Apr 10.0 19:01:03 10° NNW 19:06:29 36° NNW 19:06:29 36° NNW visible
